ROU1811 MMUN-CYYZ

Flight info

Callsign ROU1811
Flight time 3h 27m
Altitude 37000
Route ROTGI2A ROTGI UM219 MYDIA M219 KNOST Q109 CAMJO DCT DANCO DCT OXMAN LINNG3
Aircraft A320/M-SDE3FGHIRWY/LB1

Departure

Time 2026-05-07 22:36
Airport Cancún International Airport (MMUN)

Arrival

Time 2026-05-08 02:03
Airport Toronto Pearson International Airport (CYYZ)
Time Latitude Longitude Altitude Speed Heading
2026-05-07 16:44 21.04738 -86.88323 29 ft 0 kts 124°
2026-05-07 22:29 21.04741 -86.88328 29 ft 3 kts 124°
2026-05-07 22:29 21.04753 -86.88348 29 ft 3 kts 126°
2026-05-07 22:29 21.04768 -86.88365 29 ft 3 kts 158°
2026-05-07 22:29 21.04787 -86.88367 29 ft 3 kts 206°
2026-05-07 22:30 21.04794 -86.88363 29 ft 0 kts 213°
2026-05-07 22:32 21.04794 -86.88364 29 ft 0 kts 213°
2026-05-07 22:32 21.04764 -86.88385 29 ft 8 kts 213°
2026-05-07 22:32 21.04711 -86.88422 29 ft 10 kts 213°
2026-05-07 22:33 21.04645 -86.88469 29 ft 12 kts 213°
2026-05-07 22:33 21.04566 -86.88524 29 ft 15 kts 213°
2026-05-07 22:33 21.04496 -86.88574 30 ft 10 kts 213°
2026-05-07 22:33 21.04442 -86.88618 30 ft 10 kts 237°
2026-05-07 22:34 21.04471 -86.88686 31 ft 12 kts 304°
2026-05-07 22:34 21.04520 -86.88765 30 ft 14 kts 303°
2026-05-07 22:34 21.04578 -86.88856 30 ft 15 kts 304°
2026-05-07 22:34 21.04628 -86.88937 30 ft 12 kts 303°
2026-05-07 22:35 21.04616 -86.89019 31 ft 13 kts 219°
2026-05-07 22:35 21.04541 -86.89071 32 ft 11 kts 196°
2026-05-07 22:35 21.04480 -86.89013 32 ft 17 kts 124°
2026-05-07 22:35 21.04314 -86.88755 35 ft 74 kts 123°
2026-05-07 22:36 21.03913 -86.88114 34 ft 130 kts 124°
2026-05-07 22:36 21.03333 -86.87178 117 ft 165 kts 125°
2026-05-07 22:36 21.02741 -86.86100 657 ft 174 kts 111°
2026-05-07 22:36 21.02574 -86.84786 1257 ft 184 kts 86°
2026-05-07 22:37 21.02937 -86.83468 1811 ft 191 kts 63°
2026-05-07 22:37 21.03795 -86.82302 2206 ft 209 kts 48°
2026-05-07 22:37 21.04892 -86.81149 2569 ft 231 kts 47°
2026-05-07 22:37 21.06090 -86.79931 3036 ft 251 kts 42°
2026-05-07 22:38 21.07651 -86.78949 3598 ft 272 kts 25°
2026-05-07 22:38 21.09519 -86.78180 3888 ft 303 kts 23°
2026-05-07 22:38 21.11610 -86.77437 4153 ft 330 kts 17°
2026-05-07 22:38 21.13910 -86.76874 4553 ft 348 kts 13°
2026-05-07 22:39 21.16353 -86.76479 5025 ft 362 kts
2026-05-07 22:39 21.18906 -86.76211 5530 ft 374 kts
2026-05-07 22:39 21.21539 -86.76019 6016 ft 385 kts
2026-05-07 22:39 21.24205 -86.75800 7040 ft 376 kts
2026-05-07 22:40 21.26735 -86.75495 8429 ft 356 kts
2026-05-07 22:40 21.29128 -86.75154 9790 ft 336 kts
2026-05-07 22:40 21.31436 -86.74799 10546 ft 340 kts 10°
2026-05-07 22:40 21.33810 -86.74425 11090 ft 346 kts 10°
2026-05-07 22:41 21.36206 -86.74056 11730 ft 349 kts
2026-05-07 22:41 21.38594 -86.73701 12392 ft 351 kts
2026-05-07 22:41 21.41022 -86.73350 13022 ft 353 kts
2026-05-07 22:41 21.43467 -86.73003 13615 ft 356 kts
2026-05-07 22:42 21.45932 -86.72653 14175 ft 358 kts
2026-05-07 22:42 21.48413 -86.72301 14726 ft 362 kts
2026-05-07 22:42 21.50917 -86.71947 15278 ft 364 kts
2026-05-07 22:42 21.53439 -86.71589 15818 ft 367 kts
2026-05-07 22:43 21.55978 -86.71225 16361 ft 369 kts
2026-05-07 22:43 21.58535 -86.70855 16894 ft 372 kts
2026-05-07 22:43 21.61085 -86.70488 17417 ft 375 kts
2026-05-07 22:43 21.63682 -86.70119 17923 ft 377 kts
2026-05-07 22:44 21.66292 -86.69747 18445 ft 380 kts
2026-05-07 22:44 21.68923 -86.69372 18913 ft 384 kts
2026-05-07 22:44 21.71587 -86.68992 19376 ft 387 kts
2026-05-07 22:44 21.74271 -86.68609 19813 ft 391 kts
2026-05-07 22:45 21.76986 -86.68223 20226 ft 396 kts
2026-05-07 22:45 21.79727 -86.67831 20645 ft 400 kts
2026-05-07 22:45 21.82498 -86.67432 21061 ft 404 kts
2026-05-07 22:45 21.85290 -86.67004 21453 ft 407 kts 10°
2026-05-07 22:46 21.88096 -86.66453 21829 ft 411 kts 12°
2026-05-07 22:46 21.90904 -86.65804 22199 ft 414 kts 13°
2026-05-07 22:46 21.93689 -86.65115 22570 ft 417 kts 13°
2026-05-07 22:46 21.96534 -86.64403 22926 ft 421 kts 13°
2026-05-07 22:47 21.99404 -86.63702 23282 ft 424 kts 12°
2026-05-07 22:47 22.02302 -86.63015 23617 ft 428 kts 12°
2026-05-07 22:47 22.05227 -86.62337 23943 ft 432 kts 11°
2026-05-07 22:47 22.08175 -86.61661 24278 ft 434 kts 11°
2026-05-07 22:48 22.11141 -86.60983 24627 ft 437 kts 11°
2026-05-07 22:48 22.14123 -86.60301 24985 ft 439 kts 11°
2026-05-07 22:48 22.17115 -86.59614 25343 ft 441 kts 11°
2026-05-07 22:48 22.20124 -86.58921 25704 ft 443 kts 11°
2026-05-07 22:49 22.23140 -86.58226 26059 ft 445 kts 11°
2026-05-07 22:49 22.26174 -86.57525 26407 ft 446 kts 11°
2026-05-07 22:49 22.29215 -86.56820 26732 ft 448 kts 11°
2026-05-07 22:49 22.32268 -86.56113 27061 ft 450 kts 11°
2026-05-07 22:50 22.35333 -86.55404 27387 ft 451 kts 10°
2026-05-07 22:50 22.38412 -86.54697 27711 ft 453 kts 10°
2026-05-07 22:50 22.41507 -86.53988 28018 ft 455 kts 10°
2026-05-07 22:50 22.44571 -86.53282 28335 ft 457 kts 10°
2026-05-07 22:51 22.47686 -86.52563 28654 ft 459 kts 10°
2026-05-07 22:51 22.50811 -86.51837 28979 ft 461 kts 10°
2026-05-07 22:51 22.53949 -86.51104 29310 ft 463 kts 10°
2026-05-07 22:51 22.57102 -86.50367 29632 ft 464 kts 10°
2026-05-07 22:52 22.60270 -86.49630 29945 ft 467 kts 10°
2026-05-07 22:52 22.63452 -86.48889 30252 ft 468 kts 10°
2026-05-07 22:52 22.66644 -86.48147 30564 ft 470 kts
2026-05-07 22:52 22.69846 -86.47403 30884 ft 471 kts
2026-05-07 22:53 22.73045 -86.46663 31332 ft 469 kts
2026-05-07 22:53 22.76225 -86.45925 31804 ft 467 kts
2026-05-07 22:53 22.79391 -86.45188 32262 ft 464 kts
2026-05-07 22:53 22.82552 -86.44452 32711 ft 462 kts
2026-05-07 22:54 22.85694 -86.43718 33172 ft 460 kts
2026-05-07 22:54 22.88820 -86.42984 33618 ft 458 kts
2026-05-07 22:54 22.91890 -86.42265 34064 ft 456 kts
2026-05-07 22:54 22.94979 -86.41542 34495 ft 454 kts
2026-05-07 22:55 22.98062 -86.40819 34895 ft 452 kts
2026-05-07 22:55 23.01133 -86.40100 35275 ft 451 kts
2026-05-07 22:55 23.04197 -86.39388 35624 ft 449 kts
2026-05-07 22:55 23.07251 -86.38674 35959 ft 448 kts
2026-05-07 22:56 23.10297 -86.37960 36280 ft 448 kts
2026-05-07 22:56 23.13337 -86.37246 36586 ft 447 kts
2026-05-07 22:56 23.16374 -86.36537 36908 ft 445 kts
2026-05-07 22:56 23.19393 -86.35830 37336 ft 441 kts
2026-05-07 22:57 23.22331 -86.35137 37732 ft 438 kts
2026-05-07 22:57 23.25348 -86.34426 38045 ft 436 kts
2026-05-07 22:57 23.28314 -86.33728 38312 ft 435 kts
2026-05-07 22:57 23.31269 -86.33034 38565 ft 434 kts
2026-05-07 22:58 23.34223 -86.32341 38806 ft 434 kts
2026-05-07 22:58 23.37174 -86.31649 38956 ft 434 kts
2026-05-07 22:58 23.40132 -86.30953 38988 ft 436 kts
2026-05-07 22:59 23.46032 -86.29566 39002 ft 436 kts
2026-05-07 22:59 23.51970 -86.28173 38995 ft 437 kts
2026-05-07 23:00 23.57917 -86.26772 39000 ft 437 kts
2026-05-07 23:00 23.63827 -86.25368 38998 ft 437 kts
2026-05-07 23:01 23.69769 -86.23966 39001 ft 437 kts
2026-05-07 23:01 23.75716 -86.22566 39007 ft 437 kts
2026-05-07 23:02 23.81666 -86.21153 39009 ft 438 kts
2026-05-07 23:02 23.87622 -86.19739 39017 ft 438 kts
2026-05-07 23:03 23.93580 -86.18327 39023 ft 438 kts
2026-05-07 23:03 23.99546 -86.16908 39021 ft 438 kts
2026-05-07 23:04 24.05393 -86.14976 39027 ft 445 kts 22°
2026-05-07 23:04 24.10820 -86.11662 39027 ft 447 kts 25°
2026-05-07 23:05 24.16194 -86.08324 39027 ft 447 kts 25°
2026-05-07 23:05 24.21607 -86.04977 39027 ft 447 kts 25°
2026-05-07 23:06 24.27022 -86.01622 39026 ft 447 kts 25°
2026-05-07 23:06 24.32437 -85.98256 39026 ft 448 kts 25°
2026-05-07 23:07 24.37864 -85.94883 39028 ft 448 kts 25°
2026-05-07 23:07 24.43282 -85.91513 39027 ft 448 kts 25°
2026-05-07 23:08 24.48708 -85.88142 39027 ft 448 kts 25°
2026-05-07 23:08 24.54098 -85.84783 39011 ft 448 kts 25°
2026-05-07 23:09 24.59517 -85.81408 39021 ft 448 kts 25°
2026-05-07 23:09 24.64935 -85.78020 39026 ft 448 kts 25°
2026-05-07 23:10 24.70356 -85.74630 39027 ft 448 kts 25°
2026-05-07 23:10 24.75755 -85.71261 39027 ft 448 kts 25°
2026-05-07 23:11 24.81189 -85.67854 39028 ft 449 kts 25°
2026-05-07 23:11 24.86614 -85.64448 39034 ft 449 kts 25°
2026-05-07 23:12 24.92047 -85.61042 39036 ft 449 kts 25°
2026-05-07 23:12 24.97486 -85.57625 39032 ft 450 kts 25°
2026-05-07 23:13 25.02006 -85.54777 39035 ft 450 kts 25°
2026-05-07 23:13 25.08328 -85.50785 39035 ft 450 kts 25°
2026-05-07 23:14 25.12852 -85.47942 39035 ft 450 kts 25°
2026-05-07 23:14 25.18291 -85.44523 39034 ft 450 kts 25°
2026-05-07 23:15 25.23730 -85.41092 39035 ft 450 kts 25°
2026-05-07 23:15 25.29167 -85.37649 39034 ft 450 kts 26°
2026-05-07 23:16 25.34798 -85.34797 39033 ft 441 kts 10°
2026-05-07 23:16 25.40805 -85.33839 39032 ft 435 kts
2026-05-07 23:17 25.46836 -85.33224 39032 ft 436 kts
2026-05-07 23:17 25.52871 -85.32594 39033 ft 436 kts
2026-05-07 23:18 25.58911 -85.31964 39033 ft 436 kts
2026-05-07 23:18 25.64953 -85.31344 39035 ft 436 kts
2026-05-07 23:19 25.70991 -85.30729 39035 ft 436 kts
2026-05-07 23:19 25.77033 -85.30103 39039 ft 436 kts
2026-05-07 23:20 25.83078 -85.29475 39041 ft 436 kts
2026-05-07 23:20 25.89120 -85.28860 39043 ft 436 kts
2026-05-07 23:21 25.95171 -85.28233 39045 ft 437 kts
2026-05-07 23:21 26.01223 -85.27603 39048 ft 437 kts
2026-05-07 23:22 26.07278 -85.26977 39047 ft 437 kts
2026-05-07 23:22 26.13339 -85.26353 39046 ft 438 kts
2026-05-07 23:23 26.19365 -85.25726 39046 ft 438 kts
2026-05-07 23:23 26.25436 -85.25099 39046 ft 438 kts
2026-05-07 23:24 26.31512 -85.24464 39048 ft 438 kts
2026-05-07 23:24 26.37584 -85.23748 39046 ft 442 kts
2026-05-07 23:25 26.43498 -85.21673 39042 ft 448 kts 15°
2026-05-07 23:25 26.49353 -85.19285 39040 ft 448 kts 15°
2026-05-07 23:26 26.55215 -85.16901 39045 ft 448 kts 15°
2026-05-07 23:26 26.61077 -85.14517 39047 ft 448 kts 15°
2026-05-07 23:27 26.69878 -85.10934 39045 ft 449 kts 14°
2026-05-07 23:27 26.75749 -85.08544 39041 ft 449 kts 14°
2026-05-07 23:28 26.81612 -85.06148 39038 ft 449 kts 14°
2026-05-07 23:28 26.87476 -85.03754 39037 ft 449 kts 14°
2026-05-07 23:29 26.93344 -85.01353 39035 ft 449 kts 14°
2026-05-07 23:29 26.99220 -84.98947 39039 ft 449 kts 14°
2026-05-07 23:30 27.05054 -84.96569 39041 ft 449 kts 14°
2026-05-07 23:30 27.10927 -84.94162 39041 ft 449 kts 14°
2026-05-07 23:31 27.16797 -84.91746 39040 ft 449 kts 14°
2026-05-07 23:31 27.22673 -84.89323 39040 ft 450 kts 14°
2026-05-07 23:32 27.28556 -84.86905 39039 ft 450 kts 14°
2026-05-07 23:32 27.34438 -84.84485 39037 ft 450 kts 14°
2026-05-07 23:33 27.40318 -84.82062 39038 ft 450 kts 14°
2026-05-07 23:33 27.46049 -84.79145 39036 ft 460 kts 29°
2026-05-07 23:34 27.48544 -84.76844 39036 ft 468 kts 41°
2026-05-07 23:34 27.50636 -84.74005 39033 ft 475 kts 53°
2026-05-07 23:34 27.52229 -84.70725 39032 ft 480 kts 64°
2026-05-07 23:34 27.53534 -84.67261 39030 ft 481 kts 64°
2026-05-07 23:35 27.56155 -84.60307 39033 ft 483 kts 64°
2026-05-07 23:35 27.58791 -84.53332 39038 ft 484 kts 64°
2026-05-07 23:36 27.61421 -84.46348 39045 ft 484 kts 64°
2026-05-07 23:36 27.64050 -84.39352 39044 ft 485 kts 64°
2026-05-07 23:37 27.66684 -84.32342 39045 ft 485 kts 64°
2026-05-07 23:37 27.69317 -84.25328 39048 ft 486 kts 64°
2026-05-07 23:38 27.71932 -84.18344 39049 ft 486 kts 64°
2026-05-07 23:38 27.74572 -84.11309 39054 ft 487 kts 64°
2026-05-07 23:39 27.77217 -84.04262 39054 ft 487 kts 64°
2026-05-07 23:39 27.79847 -83.97200 39049 ft 488 kts 64°
2026-05-07 23:40 27.82479 -83.90135 39050 ft 488 kts 64°
2026-05-07 23:40 27.85099 -83.83071 39051 ft 488 kts 64°
2026-05-07 23:41 27.87693 -83.76030 39055 ft 488 kts 64°
2026-05-07 23:41 27.90305 -83.68949 39057 ft 488 kts 64°
2026-05-07 23:42 27.92917 -83.61858 39063 ft 488 kts 64°
2026-05-07 23:42 27.95517 -83.54779 39062 ft 487 kts 64°
2026-05-07 23:43 27.98530 -83.47984 39057 ft 479 kts 49°
2026-05-07 23:43 28.00677 -83.45145 39057 ft 471 kts 38°
2026-05-07 23:43 28.03177 -83.42809 39053 ft 462 kts 27°
2026-05-07 23:44 28.08873 -83.39810 39041 ft 445 kts
2026-05-07 23:44 28.14872 -83.38085 39039 ft 445 kts
2026-05-07 23:45 28.20873 -83.36354 39045 ft 445 kts
2026-05-07 23:45 28.26889 -83.34627 39054 ft 446 kts
2026-05-07 23:46 28.32915 -83.32893 39058 ft 447 kts
2026-05-07 23:46 28.38902 -83.31157 39061 ft 447 kts
2026-05-07 23:47 28.44921 -83.29416 39062 ft 447 kts
2026-05-07 23:47 28.50951 -83.27675 39060 ft 446 kts
2026-05-07 23:48 28.56963 -83.25939 39056 ft 446 kts
2026-05-07 23:48 28.62983 -83.24199 39051 ft 446 kts
2026-05-07 23:49 28.68997 -83.22448 39052 ft 447 kts
2026-05-07 23:49 28.75030 -83.20690 39057 ft 448 kts
2026-05-07 23:50 28.81065 -83.18940 39059 ft 448 kts
2026-05-07 23:50 28.87104 -83.17196 39062 ft 448 kts
2026-05-07 23:51 28.93152 -83.15434 39061 ft 448 kts
2026-05-07 23:51 28.99197 -83.13669 39059 ft 448 kts
2026-05-07 23:52 29.05237 -83.11904 39055 ft 447 kts
2026-05-07 23:52 29.11235 -83.10145 39050 ft 447 kts
2026-05-07 23:53 29.17273 -83.08374 39046 ft 448 kts
2026-05-07 23:53 29.23316 -83.06605 39046 ft 448 kts
2026-05-07 23:54 29.29355 -83.04837 39043 ft 448 kts
2026-05-07 23:54 29.35396 -83.03051 39040 ft 448 kts
2026-05-07 23:55 29.41430 -83.01266 39033 ft 448 kts
2026-05-07 23:55 29.47471 -82.99491 39032 ft 448 kts
2026-05-07 23:56 29.53509 -82.97704 39030 ft 448 kts
2026-05-07 23:56 29.59544 -82.95903 39028 ft 448 kts
2026-05-07 23:57 29.65578 -82.94108 39029 ft 448 kts
2026-05-07 23:57 29.70590 -82.92622 39022 ft 447 kts
2026-05-07 23:58 29.76619 -82.90841 39026 ft 447 kts
2026-05-07 23:58 29.82650 -82.89061 39027 ft 447 kts
2026-05-07 23:59 29.88675 -82.87269 39020 ft 447 kts
2026-05-07 23:59 29.94700 -82.85471 39013 ft 447 kts
2026-05-08 00:00 30.00720 -82.83679 39025 ft 447 kts
2026-05-08 00:00 30.06709 -82.81891 39016 ft 448 kts
2026-05-08 00:01 30.12756 -82.80078 39005 ft 449 kts
2026-05-08 00:01 30.18799 -82.78268 39006 ft 449 kts
2026-05-08 00:02 30.24849 -82.76472 39006 ft 449 kts
2026-05-08 00:02 30.30901 -82.74657 39014 ft 449 kts
2026-05-08 00:03 30.36956 -82.72833 39013 ft 450 kts
2026-05-08 00:03 30.43009 -82.71010 39008 ft 450 kts
2026-05-08 00:04 30.49073 -82.69188 39005 ft 450 kts
2026-05-08 00:04 30.55138 -82.67400 39003 ft 449 kts
2026-05-08 00:05 30.61181 -82.65732 39009 ft 449 kts
2026-05-08 00:05 30.67264 -82.64074 39011 ft 449 kts
2026-05-08 00:06 30.73351 -82.62389 39014 ft 450 kts
2026-05-08 00:06 30.79438 -82.60689 39014 ft 450 kts
2026-05-08 00:07 30.85532 -82.58984 39017 ft 450 kts
2026-05-08 00:07 30.91628 -82.57277 39005 ft 451 kts
2026-05-08 00:08 30.97688 -82.55574 39010 ft 451 kts
2026-05-08 00:08 31.03804 -82.53865 39003 ft 452 kts
2026-05-08 00:09 31.09916 -82.52146 39004 ft 452 kts
2026-05-08 00:09 31.16037 -82.50413 39004 ft 452 kts
2026-05-08 00:10 31.22125 -82.48694 39004 ft 453 kts
2026-05-08 00:10 31.28243 -82.46969 39006 ft 452 kts
2026-05-08 00:11 31.34370 -82.45248 39000 ft 453 kts
2026-05-08 00:11 31.40503 -82.43518 39005 ft 454 kts
2026-05-08 00:12 31.46640 -82.41775 39006 ft 453 kts
2026-05-08 00:12 31.52780 -82.40030 38995 ft 454 kts
2026-05-08 00:13 31.58879 -82.38293 38991 ft 454 kts
2026-05-08 00:13 31.65022 -82.36538 38988 ft 454 kts
2026-05-08 00:14 31.71168 -82.34785 38988 ft 454 kts
2026-05-08 00:14 31.77329 -82.33034 38965 ft 456 kts
2026-05-08 00:15 31.83520 -82.31270 38962 ft 458 kts
2026-05-08 00:15 31.89719 -82.29497 38965 ft 459 kts
2026-05-08 00:16 31.95936 -82.27734 38969 ft 460 kts
2026-05-08 00:16 32.02159 -82.25957 38971 ft 461 kts
2026-05-08 00:17 32.08393 -82.24165 38974 ft 461 kts
2026-05-08 00:17 32.14624 -82.22369 38978 ft 461 kts
2026-05-08 00:18 32.20863 -82.20568 38980 ft 461 kts
2026-05-08 00:18 32.27094 -82.18759 38976 ft 462 kts
2026-05-08 00:19 32.33301 -82.16957 38980 ft 462 kts
2026-05-08 00:19 32.39539 -82.15156 38982 ft 462 kts
2026-05-08 00:20 32.45784 -82.13351 38984 ft 462 kts
2026-05-08 00:20 32.52039 -82.11529 38983 ft 462 kts
2026-05-08 00:21 32.58287 -82.09713 38983 ft 462 kts
2026-05-08 00:21 32.64535 -82.07890 38982 ft 462 kts
2026-05-08 00:22 32.70784 -82.06068 38979 ft 463 kts
2026-05-08 00:22 32.77037 -82.04258 38968 ft 462 kts
2026-05-08 00:23 32.83292 -82.02449 38965 ft 463 kts
2026-05-08 00:23 32.89556 -82.00626 38960 ft 463 kts
2026-05-08 00:24 32.95818 -81.98791 38960 ft 463 kts
2026-05-08 00:24 33.02075 -81.96934 38955 ft 463 kts
2026-05-08 00:25 33.08333 -81.95085 38949 ft 463 kts
2026-05-08 00:25 33.14555 -81.93255 38944 ft 464 kts
2026-05-08 00:26 33.20819 -81.91418 38938 ft 464 kts 360°
2026-05-08 00:26 33.27094 -81.89567 38934 ft 464 kts 360°
2026-05-08 00:27 33.33375 -81.87699 38933 ft 465 kts 359°
2026-05-08 00:27 33.39659 -81.85838 38930 ft 465 kts 359°
2026-05-08 00:28 33.45941 -81.83972 38928 ft 465 kts 359°
2026-05-08 00:28 33.52196 -81.82117 38936 ft 465 kts 359°
2026-05-08 00:29 33.58494 -81.80252 38946 ft 465 kts 359°
2026-05-08 00:29 33.64779 -81.78382 38957 ft 466 kts 359°
2026-05-08 00:30 33.71067 -81.76507 38961 ft 466 kts 359°
2026-05-08 00:30 33.77365 -81.74628 38963 ft 466 kts 359°
2026-05-08 00:31 33.83620 -81.72751 38965 ft 466 kts 359°
2026-05-08 00:31 33.89917 -81.70857 38966 ft 466 kts 359°
2026-05-08 00:32 33.96220 -81.68970 38967 ft 466 kts 359°
2026-05-08 00:32 34.02520 -81.67078 38963 ft 467 kts 358°
2026-05-08 00:33 34.08825 -81.65177 38960 ft 467 kts 358°
2026-05-08 00:33 34.15118 -81.63281 38962 ft 466 kts 358°
2026-05-08 00:34 34.21375 -81.61390 38965 ft 466 kts 358°
2026-05-08 00:34 34.27678 -81.59486 38969 ft 466 kts 358°
2026-05-08 00:35 34.33973 -81.57580 38977 ft 466 kts 359°
2026-05-08 00:35 34.40251 -81.55666 38976 ft 465 kts 358°
2026-05-08 00:36 34.46528 -81.53757 38977 ft 464 kts 358°
2026-05-08 00:36 34.52797 -81.51863 38971 ft 464 kts 358°
2026-05-08 00:37 34.59060 -81.49966 38969 ft 464 kts 358°
2026-05-08 00:38 34.68406 -81.47101 38975 ft 464 kts 358°
2026-05-08 00:38 34.74668 -81.45167 38979 ft 464 kts 358°
2026-05-08 00:39 34.80920 -81.43253 38979 ft 463 kts 358°
2026-05-08 00:39 34.87170 -81.41337 38979 ft 463 kts 358°
2026-05-08 00:40 34.93406 -81.39420 38975 ft 462 kts 358°
2026-05-08 00:40 34.99643 -81.37501 38976 ft 462 kts 358°
2026-05-08 00:41 35.05877 -81.35593 38979 ft 461 kts 358°
2026-05-08 00:41 35.12099 -81.33666 38979 ft 461 kts 358°
2026-05-08 00:42 35.18311 -81.31736 38971 ft 461 kts 358°
2026-05-08 00:42 35.24524 -81.29798 38964 ft 460 kts 358°
2026-05-08 00:43 35.30692 -81.27881 38964 ft 460 kts 358°
2026-05-08 00:43 35.36894 -81.25956 38970 ft 459 kts 358°
2026-05-08 00:44 35.43092 -81.24044 38979 ft 459 kts 358°
2026-05-08 00:44 35.49282 -81.22120 38988 ft 459 kts 358°
2026-05-08 00:45 35.55468 -81.20191 38987 ft 458 kts 358°
2026-05-08 00:45 35.61620 -81.18259 38996 ft 458 kts 358°
2026-05-08 00:46 35.67806 -81.16310 38993 ft 458 kts 358°
2026-05-08 00:46 35.73984 -81.14369 38991 ft 458 kts 358°
2026-05-08 00:47 35.80153 -81.12433 38994 ft 458 kts 358°
2026-05-08 00:47 35.86322 -81.10503 38996 ft 457 kts 358°
2026-05-08 00:48 35.91446 -81.08876 38999 ft 458 kts 358°
2026-05-08 00:48 35.97617 -81.06933 38992 ft 457 kts 358°
2026-05-08 00:49 36.03794 -81.04997 39006 ft 458 kts 358°
2026-05-08 00:49 36.09935 -81.03040 39010 ft 458 kts 358°
2026-05-08 00:50 36.16106 -81.01081 39027 ft 458 kts 358°
2026-05-08 00:50 36.22280 -80.99127 39034 ft 458 kts 358°
2026-05-08 00:51 36.28447 -80.97158 39038 ft 458 kts 358°
2026-05-08 00:51 36.34584 -80.95203 39038 ft 458 kts 358°
2026-05-08 00:52 36.40753 -80.93236 39034 ft 458 kts 358°
2026-05-08 00:52 36.46929 -80.91255 39036 ft 458 kts 358°
2026-05-08 00:53 36.53099 -80.89278 39032 ft 458 kts 358°
2026-05-08 00:53 36.59271 -80.87290 39027 ft 458 kts 358°
2026-05-08 00:54 36.65452 -80.85306 39024 ft 458 kts 358°
2026-05-08 00:54 36.71625 -80.83325 39005 ft 458 kts 359°
2026-05-08 00:55 36.77807 -80.81333 39008 ft 459 kts 359°
2026-05-08 00:55 36.83996 -80.79338 39009 ft 459 kts 359°
2026-05-08 00:56 36.90186 -80.77335 39008 ft 459 kts 359°
2026-05-08 00:56 36.96382 -80.75309 39003 ft 460 kts 359°
2026-05-08 00:57 37.02571 -80.73293 39005 ft 459 kts 359°
2026-05-08 00:57 37.08720 -80.71301 39000 ft 459 kts 359°
2026-05-08 00:58 37.14912 -80.69570 38990 ft 453 kts 355°
2026-05-08 00:58 37.21097 -80.68127 38990 ft 451 kts 355°
2026-05-08 00:59 37.27282 -80.66677 38989 ft 453 kts 355°
2026-05-08 00:59 37.33481 -80.65138 38992 ft 455 kts 356°
2026-05-08 01:00 37.39689 -80.63557 39011 ft 455 kts 356°
2026-05-08 01:00 37.45903 -80.61980 39012 ft 456 kts 356°
2026-05-08 01:01 37.52124 -80.60418 39009 ft 456 kts 356°
2026-05-08 01:01 37.58325 -80.58849 39009 ft 457 kts 356°
2026-05-08 01:02 37.64567 -80.57274 39023 ft 457 kts 356°
2026-05-08 01:02 37.70812 -80.55703 39017 ft 457 kts 356°
2026-05-08 01:03 37.77057 -80.54116 39022 ft 458 kts 356°
2026-05-08 01:03 37.83300 -80.52526 39020 ft 458 kts 356°
2026-05-08 01:04 37.89548 -80.50939 39017 ft 457 kts 356°
2026-05-08 01:04 37.95789 -80.49362 39008 ft 458 kts 356°
2026-05-08 01:05 38.02005 -80.47772 38999 ft 459 kts 356°
2026-05-08 01:05 38.08266 -80.46164 39008 ft 459 kts 357°
2026-05-08 01:06 38.14537 -80.44557 39008 ft 459 kts 357°
2026-05-08 01:06 38.20807 -80.42948 39002 ft 460 kts 357°
2026-05-08 01:07 38.27069 -80.41340 39004 ft 459 kts 358°
2026-05-08 01:07 38.33296 -80.39736 39006 ft 459 kts 358°
2026-05-08 01:08 38.39568 -80.38097 39006 ft 460 kts 357°
2026-05-08 01:08 38.45854 -80.36450 39009 ft 460 kts 357°
2026-05-08 01:09 38.52137 -80.34822 39009 ft 461 kts 357°
2026-05-08 01:09 38.58387 -80.33213 39003 ft 460 kts 357°
2026-05-08 01:10 38.64671 -80.31590 39001 ft 461 kts 357°
2026-05-08 01:10 38.70962 -80.29954 39003 ft 462 kts 358°
2026-05-08 01:11 38.77268 -80.28312 39010 ft 462 kts 358°
2026-05-08 01:11 38.83576 -80.26664 39010 ft 462 kts 358°
2026-05-08 01:12 38.89884 -80.25003 39008 ft 463 kts 358°
2026-05-08 01:12 38.96192 -80.23335 39009 ft 463 kts 358°
2026-05-08 01:13 39.02468 -80.21678 39013 ft 463 kts 358°
2026-05-08 01:13 39.08784 -80.20019 38999 ft 464 kts 358°
2026-05-08 01:14 39.15117 -80.18353 39007 ft 464 kts 358°
2026-05-08 01:14 39.21451 -80.16679 39003 ft 465 kts 358°
2026-05-08 01:15 39.27793 -80.14997 39003 ft 465 kts 359°
2026-05-08 01:15 39.34135 -80.13310 38999 ft 466 kts 359°
2026-05-08 01:16 39.40488 -80.11626 38993 ft 466 kts 359°
2026-05-08 01:16 39.46801 -80.09945 38995 ft 466 kts 359°
2026-05-08 01:17 39.53168 -80.08243 39003 ft 467 kts 359°
2026-05-08 01:17 39.59540 -80.06544 39007 ft 467 kts 359°
2026-05-08 01:18 39.65920 -80.04837 39006 ft 467 kts 359°
2026-05-08 01:18 39.72295 -80.03122 39011 ft 468 kts 359°
2026-05-08 01:19 39.78633 -80.01426 39011 ft 468 kts 359°
2026-05-08 01:19 39.85026 -79.99708 39004 ft 469 kts 359°
2026-05-08 01:20 39.91419 -79.97976 39015 ft 469 kts 359°
2026-05-08 01:20 39.97814 -79.96233 39018 ft 469 kts 359°
2026-05-08 01:21 40.04208 -79.94499 39022 ft 469 kts 359°
2026-05-08 01:21 40.10605 -79.92771 39007 ft 469 kts 359°
2026-05-08 01:22 40.16998 -79.91043 39007 ft 469 kts 359°
2026-05-08 01:22 40.23348 -79.89313 39004 ft 469 kts 360°
2026-05-08 01:23 40.29746 -79.87552 38998 ft 469 kts 360°
2026-05-08 01:23 40.36141 -79.85806 38989 ft 469 kts 359°
2026-05-08 01:24 40.42538 -79.84058 38988 ft 469 kts 360°
2026-05-08 01:24 40.48939 -79.82300 38989 ft 470 kts 360°
2026-05-08 01:25 40.55290 -79.80555 38991 ft 469 kts 360°
2026-05-08 01:25 40.61695 -79.78793 38984 ft 470 kts
2026-05-08 01:26 40.68097 -79.77027 38995 ft 470 kts
2026-05-08 01:26 40.74502 -79.75258 38994 ft 470 kts
2026-05-08 01:27 40.80910 -79.73477 39001 ft 471 kts
2026-05-08 01:27 40.87326 -79.71704 39002 ft 471 kts
2026-05-08 01:28 40.93744 -79.69922 39003 ft 471 kts
2026-05-08 01:28 41.00171 -79.68116 38995 ft 471 kts
2026-05-08 01:29 41.06542 -79.66324 38995 ft 471 kts
2026-05-08 01:29 41.12965 -79.64529 38996 ft 472 kts
2026-05-08 01:30 41.19398 -79.62730 38992 ft 472 kts
2026-05-08 01:30 41.25814 -79.60925 38998 ft 472 kts
2026-05-08 01:31 41.32235 -79.59113 39000 ft 471 kts
2026-05-08 01:31 41.38653 -79.57305 38999 ft 471 kts
2026-05-08 01:32 41.45075 -79.55507 38991 ft 471 kts
2026-05-08 01:32 41.51502 -79.53698 38988 ft 471 kts
2026-05-08 01:33 41.57923 -79.51887 38985 ft 471 kts
2026-05-08 01:33 41.64338 -79.50054 38986 ft 472 kts
2026-05-08 01:34 41.70722 -79.48222 38986 ft 472 kts
2026-05-08 01:34 41.77143 -79.46383 38989 ft 471 kts
2026-05-08 01:35 41.83551 -79.44547 38986 ft 471 kts
2026-05-08 01:35 41.89965 -79.42707 38986 ft 471 kts
2026-05-08 01:36 41.96370 -79.40873 38983 ft 471 kts
2026-05-08 01:36 42.02780 -79.39023 38887 ft 472 kts
2026-05-08 01:36 42.05979 -79.38107 37736 ft 482 kts
2026-05-08 01:37 42.09294 -79.37163 36279 ft 490 kts
2026-05-08 01:37 42.12635 -79.36523 34919 ft 481 kts 353°
2026-05-08 01:37 42.15988 -79.36238 33378 ft 485 kts 353°
2026-05-08 01:37 42.19375 -79.35965 31814 ft 488 kts 352°
2026-05-08 01:38 42.22772 -79.35696 30110 ft 490 kts 352°
2026-05-08 01:38 42.26215 -79.35425 28533 ft 499 kts 352°
2026-05-08 01:38 42.29674 -79.35150 27937 ft 492 kts 353°
2026-05-08 01:38 42.33035 -79.34857 27676 ft 477 kts 353°
2026-05-08 01:39 42.36256 -79.34567 27421 ft 463 kts 353°
2026-05-08 01:39 42.39421 -79.34292 27162 ft 447 kts 353°
2026-05-08 01:39 42.42477 -79.34040 26913 ft 434 kts 353°
2026-05-08 01:39 42.45457 -79.33802 26660 ft 423 kts 352°
2026-05-08 01:40 42.48358 -79.33579 26404 ft 413 kts 352°
2026-05-08 01:40 42.51195 -79.33362 26161 ft 404 kts 353°
2026-05-08 01:40 42.53977 -79.33143 25921 ft 396 kts 353°
2026-05-08 01:40 42.55793 -79.32999 25659 ft 394 kts 353°
2026-05-08 01:41 42.59440 -79.32717 25085 ft 390 kts 353°
2026-05-08 01:41 42.61235 -79.32578 24796 ft 389 kts 354°
2026-05-08 01:41 42.63930 -79.32365 24336 ft 387 kts 354°
2026-05-08 01:41 42.66615 -79.32151 23889 ft 385 kts 355°
2026-05-08 01:42 42.69286 -79.31936 23437 ft 383 kts 355°
2026-05-08 01:42 42.71941 -79.31721 22988 ft 381 kts 355°
2026-05-08 01:42 42.74580 -79.31506 22535 ft 378 kts 355°
2026-05-08 01:42 42.77197 -79.31286 22089 ft 375 kts 356°
2026-05-08 01:43 42.79800 -79.31066 21647 ft 372 kts 356°
2026-05-08 01:43 42.82343 -79.30859 21205 ft 369 kts 355°
2026-05-08 01:43 42.84876 -79.30940 20760 ft 360 kts 348°
2026-05-08 01:43 42.87368 -79.31193 20331 ft 357 kts 348°
2026-05-08 01:44 42.89839 -79.31446 19905 ft 354 kts 348°
2026-05-08 01:44 42.92287 -79.31691 19477 ft 352 kts 349°
2026-05-08 01:44 42.94718 -79.31935 19047 ft 349 kts 349°
2026-05-08 01:44 42.97131 -79.32178 18631 ft 346 kts 349°
2026-05-08 01:45 42.99527 -79.32422 18213 ft 343 kts 349°
2026-05-08 01:45 43.01895 -79.32661 17838 ft 339 kts 349°
2026-05-08 01:45 43.04233 -79.32891 17462 ft 335 kts 349°
2026-05-08 01:45 43.06526 -79.33112 17061 ft 333 kts 350°
2026-05-08 01:46 43.08829 -79.33331 16662 ft 331 kts 350°
2026-05-08 01:46 43.11127 -79.33553 16260 ft 329 kts 349°
2026-05-08 01:46 43.13404 -79.33776 15863 ft 327 kts 350°
2026-05-08 01:46 43.15669 -79.33998 15475 ft 325 kts 349°
2026-05-08 01:47 43.17925 -79.34221 15082 ft 323 kts 349°
2026-05-08 01:47 43.20165 -79.34443 14697 ft 321 kts 349°
2026-05-08 01:47 43.22388 -79.34668 14312 ft 320 kts 349°
2026-05-08 01:48 43.26777 -79.35115 13546 ft 316 kts 349°
2026-05-08 01:48 43.28968 -79.35346 13164 ft 313 kts 347°
2026-05-08 01:48 43.31054 -79.36009 12763 ft 304 kts 333°
2026-05-08 01:48 43.32963 -79.37183 12399 ft 298 kts 328°
2026-05-08 01:49 43.34833 -79.38391 12032 ft 296 kts 328°
2026-05-08 01:49 43.36697 -79.39591 11665 ft 295 kts 329°
2026-05-08 01:49 43.38530 -79.40763 11484 ft 287 kts 329°
2026-05-08 01:49 43.40343 -79.41929 10964 ft 291 kts 329°
2026-05-08 01:50 43.42155 -79.43100 10547 ft 292 kts 329°
2026-05-08 01:50 43.43988 -79.44279 10168 ft 290 kts 330°
2026-05-08 01:50 43.45813 -79.45452 9795 ft 289 kts 330°
2026-05-08 01:50 43.47634 -79.46623 9421 ft 288 kts 330°
2026-05-08 01:51 43.49448 -79.47792 9049 ft 287 kts 331°
2026-05-08 01:51 43.51249 -79.48955 8674 ft 286 kts 331°
2026-05-08 01:51 43.53048 -79.50115 8296 ft 285 kts 332°
2026-05-08 01:51 43.54834 -79.51264 8028 ft 280 kts 332°
2026-05-08 01:52 43.56558 -79.52367 8013 ft 266 kts 332°
2026-05-08 01:52 43.58221 -79.53262 7942 ft 249 kts 346°
2026-05-08 01:52 43.59920 -79.53158 7666 ft 246 kts 15°
2026-05-08 01:52 43.61355 -79.51941 7370 ft 243 kts 41°
2026-05-08 01:53 43.62521 -79.50270 6896 ft 241 kts 43°
2026-05-08 01:53 43.63674 -79.48584 6450 ft 241 kts 43°
2026-05-08 01:53 43.64811 -79.46918 6038 ft 237 kts 43°
2026-05-08 01:53 43.65938 -79.45271 5619 ft 235 kts 43°
2026-05-08 01:54 43.67056 -79.43635 5201 ft 232 kts 44°
2026-05-08 01:54 43.68142 -79.42046 4787 ft 230 kts 43°
2026-05-08 01:54 43.69237 -79.40439 4525 ft 229 kts 44°
2026-05-08 01:54 43.70324 -79.38842 4275 ft 226 kts 44°
2026-05-08 01:55 43.71397 -79.37270 4068 ft 223 kts 44°
2026-05-08 01:55 43.72471 -79.35703 4017 ft 223 kts 43°
2026-05-08 01:55 43.73541 -79.34138 4018 ft 225 kts 44°
2026-05-08 01:55 43.74612 -79.32565 4018 ft 224 kts 44°
2026-05-08 01:56 43.75687 -79.30994 4017 ft 224 kts 44°
2026-05-08 01:56 43.76748 -79.29446 4017 ft 225 kts 44°
2026-05-08 01:56 43.77825 -79.27868 4018 ft 225 kts 44°
2026-05-08 01:56 43.78955 -79.26390 4016 ft 221 kts 27°
2026-05-08 01:57 43.80393 -79.25843 4017 ft 214 kts 353°
2026-05-08 01:57 43.81750 -79.26530 4018 ft 209 kts 319°
2026-05-08 01:57 43.82539 -79.28176 4018 ft 209 kts 284°
2026-05-08 01:57 43.82549 -79.30184 4017 ft 212 kts 263°
2026-05-08 01:58 43.82279 -79.32191 4017 ft 212 kts 260°
2026-05-08 01:58 43.81973 -79.34191 4018 ft 212 kts 260°
2026-05-08 01:58 43.81661 -79.36191 4017 ft 212 kts 259°
2026-05-08 01:58 43.81351 -79.38160 4017 ft 212 kts 259°
2026-05-08 01:59 43.80872 -79.40083 4011 ft 209 kts 241°
2026-05-08 01:59 43.79949 -79.41592 3975 ft 205 kts 229°
2026-05-08 01:59 43.78973 -79.43018 3777 ft 203 kts 230°
2026-05-08 01:59 43.78002 -79.44439 3519 ft 203 kts 230°
2026-05-08 02:00 43.77036 -79.45852 3266 ft 200 kts 230°
2026-05-08 02:00 43.76097 -79.47225 2997 ft 193 kts 230°
2026-05-08 02:00 43.75192 -79.48547 2742 ft 185 kts 229°
2026-05-08 02:00 43.74322 -79.49817 2494 ft 176 kts 227°
2026-05-08 02:01 43.73495 -79.51026 2273 ft 171 kts 226°
2026-05-08 02:01 43.72675 -79.52223 2046 ft 171 kts 225°
2026-05-08 02:01 43.71855 -79.53419 1814 ft 172 kts 225°
2026-05-08 02:01 43.71062 -79.54574 1612 ft 155 kts 227°
2026-05-08 02:02 43.70359 -79.55600 1396 ft 144 kts 227°
2026-05-08 02:02 43.69657 -79.56619 1205 ft 143 kts 226°
2026-05-08 02:02 43.68975 -79.57609 1008 ft 141 kts 227°
2026-05-08 02:02 43.68319 -79.58569 845 ft 137 kts 226°
2026-05-08 02:03 43.67661 -79.59523 659 ft 137 kts 227°
2026-05-08 02:03 43.67033 -79.60442 560 ft 117 kts 226°
2026-05-08 02:03 43.66593 -79.61080 563 ft 67 kts 226°
2026-05-08 02:03 43.66423 -79.61397 558 ft 35 kts 252°
2026-05-08 02:04 43.66387 -79.61558 562 ft 13 kts 253°
2026-05-08 02:04 43.66384 -79.61686 565 ft 15 kts 296°
2026-05-08 02:04 43.66454 -79.61795 562 ft 16 kts 316°
2026-05-08 02:04 43.66549 -79.61921 563 ft 21 kts 316°
2026-05-08 02:05 43.66651 -79.62016 568 ft 15 kts
2026-05-08 02:05 43.66738 -79.61921 571 ft 18 kts 41°
2026-05-08 02:05 43.66835 -79.61798 568 ft 21 kts 43°
2026-05-08 02:05 43.66948 -79.61656 569 ft 22 kts 41°
2026-05-08 02:06 43.67062 -79.61513 573 ft 19 kts 43°
2026-05-08 02:06 43.67161 -79.61387 570 ft 16 kts 43°
2026-05-08 02:06 43.67231 -79.61273 570 ft 18 kts 43°
2026-05-08 02:06 43.67327 -79.61328 568 ft 17 kts 317°
2026-05-08 02:07 43.67420 -79.61449 563 ft 20 kts 317°
2026-05-08 02:07 43.67527 -79.61588 563 ft 20 kts 316°
2026-05-08 02:07 43.67595 -79.61672 564 ft 12 kts 329°
2026-05-08 02:07 43.67676 -79.61616 569 ft 16 kts 45°
2026-05-08 02:08 43.67744 -79.61518 569 ft 11 kts 46°
2026-05-08 02:08 43.67792 -79.61450 562 ft 7 kts 46°
2026-05-08 02:08 43.67831 -79.61393 568 ft 7 kts 48°
2026-05-08 02:08 43.67832 -79.61339 562 ft 6 kts 120°
2026-05-08 02:09 43.67810 -79.61290 563 ft 6 kts 121°
2026-05-08 02:09 43.67798 -79.61263 565 ft 1 kts 122°
2026-05-08 02:09 43.67798 -79.61262 565 ft 0 kts 122°